WST702 MYNN-MYEH

Flight info

Callsign WST702
Flight time 0h 14m
Altitude 11000
Route FREDY2 JEDIK
Aircraft E145/M-SDFGIRW/S

Departure

Time 2026-05-08 00:47
Airport Lynden Pindling International Airport (MYNN)

Arrival

Time 2026-05-08 01:02
Airport North Eleuthera Airport (MYEH)
Time Latitude Longitude Altitude Speed Heading
2026-05-08 00:32 25.04747 -77.46596 26 ft 0 kts 179°
2026-05-08 00:39 25.04736 -77.46608 26 ft 8 kts 246°
2026-05-08 00:40 25.04734 -77.46692 23 ft 11 kts 271°
2026-05-08 00:40 25.04717 -77.46729 23 ft 10 kts 234°
2026-05-08 00:41 25.04707 -77.46761 23 ft 10 kts 270°
2026-05-08 00:42 25.04762 -77.46842 24 ft 14 kts 320°
2026-05-08 00:42 25.04835 -77.46921 26 ft 14 kts 312°
2026-05-08 00:42 25.04910 -77.47006 26 ft 16 kts 315°
2026-05-08 00:42 25.04991 -77.47097 26 ft 17 kts 315°
2026-05-08 00:43 25.05087 -77.47197 25 ft 19 kts 320°
2026-05-08 00:43 25.05186 -77.47314 22 ft 19 kts 315°
2026-05-08 00:43 25.05216 -77.47379 22 ft 5 kts 278°
2026-05-08 00:43 25.05218 -77.47411 22 ft 0 kts 265°
2026-05-08 00:46 25.05203 -77.47478 22 ft 13 kts 243°
2026-05-08 00:46 25.05148 -77.47523 21 ft 7 kts 158°
2026-05-08 00:46 25.05131 -77.47509 21 ft 0 kts 137°
2026-05-08 00:47 25.05038 -77.47407 23 ft 54 kts 134°
2026-05-08 00:47 25.04601 -77.46918 28 ft 123 kts 134°
2026-05-08 00:47 25.03917 -77.46127 267 ft 149 kts 132°
2026-05-08 00:47 25.03158 -77.45264 712 ft 168 kts 138°
2026-05-08 00:48 25.02279 -77.44337 1246 ft 183 kts 134°
2026-05-08 00:48 25.01339 -77.43297 1741 ft 204 kts 133°
2026-05-08 00:48 25.00271 -77.42112 2271 ft 229 kts 134°
2026-05-08 00:48 24.99112 -77.40799 2800 ft 250 kts 129°
2026-05-08 00:49 24.98388 -77.39024 3329 ft 263 kts 97°
2026-05-08 00:49 24.98635 -77.37017 3866 ft 266 kts 65°
2026-05-08 00:49 24.99763 -77.35487 4380 ft 259 kts 34°
2026-05-08 00:49 25.01302 -77.34512 4890 ft 254 kts 36°
2026-05-08 00:50 25.02647 -77.33292 5392 ft 250 kts 40°
2026-05-08 00:50 25.03947 -77.32037 5892 ft 246 kts 41°
2026-05-08 00:50 25.05220 -77.30784 6391 ft 242 kts 41°
2026-05-08 00:50 25.06445 -77.29572 6859 ft 239 kts 41°
2026-05-08 00:51 25.07734 -77.28295 6965 ft 254 kts 41°
2026-05-08 00:51 25.09079 -77.26962 6973 ft 270 kts 41°
2026-05-08 00:51 25.10504 -77.25549 6964 ft 273 kts 41°
2026-05-08 00:51 25.11898 -77.24159 6955 ft 268 kts 43°
2026-05-08 00:52 25.13063 -77.22551 6965 ft 263 kts 52°
2026-05-08 00:52 25.14169 -77.20991 6956 ft 259 kts 51°
2026-05-08 00:52 25.15284 -77.19440 6956 ft 256 kts 51°
2026-05-08 00:52 25.16393 -77.17902 6959 ft 256 kts 50°
2026-05-08 00:53 25.17498 -77.16371 6977 ft 255 kts 50°
2026-05-08 00:53 25.18610 -77.14831 6977 ft 254 kts 50°
2026-05-08 00:53 25.19704 -77.13313 6976 ft 254 kts 50°
2026-05-08 00:53 25.20809 -77.11782 6977 ft 254 kts 50°
2026-05-08 00:54 25.21917 -77.10244 6847 ft 259 kts 50°
2026-05-08 00:54 25.23055 -77.08667 6613 ft 265 kts 50°
2026-05-08 00:54 25.24198 -77.07079 6378 ft 268 kts 50°
2026-05-08 00:54 25.25373 -77.05448 6140 ft 270 kts 50°
2026-05-08 00:55 25.26543 -77.03841 5891 ft 273 kts 48°
2026-05-08 00:55 25.27878 -77.02293 5579 ft 276 kts 45°
2026-05-08 00:55 25.29214 -77.00755 5272 ft 280 kts 45°
2026-05-08 00:55 25.30557 -76.99210 4967 ft 282 kts 45°
2026-05-08 00:56 25.31920 -76.97640 4658 ft 283 kts 46°
2026-05-08 00:56 25.33286 -76.96066 4348 ft 284 kts 45°
2026-05-08 00:56 25.34655 -76.94489 4033 ft 280 kts 46°
2026-05-08 00:56 25.35986 -76.92954 3669 ft 274 kts 46°
2026-05-08 00:57 25.37271 -76.91473 3344 ft 260 kts 46°
2026-05-08 00:57 25.38495 -76.90060 3020 ft 248 kts 46°
2026-05-08 00:57 25.39664 -76.88711 2712 ft 238 kts 46°
2026-05-08 00:57 25.40624 -76.87300 2437 ft 222 kts 66°
2026-05-08 00:58 25.41182 -76.85772 2198 ft 208 kts 69°
2026-05-08 00:58 25.41670 -76.84433 2145 ft 169 kts 69°
2026-05-08 00:58 25.42078 -76.83311 1958 ft 144 kts 70°
2026-05-08 00:58 25.42428 -76.82343 1774 ft 127 kts 69°
2026-05-08 00:59 25.42760 -76.81424 1607 ft 135 kts 69°
2026-05-08 00:59 25.43116 -76.80440 1511 ft 139 kts 69°
2026-05-08 00:59 25.43485 -76.79422 1323 ft 149 kts 69°
2026-05-08 00:59 25.43869 -76.78361 1232 ft 147 kts 69°
2026-05-08 01:00 25.44248 -76.77315 1138 ft 146 kts 69°
2026-05-08 01:00 25.44623 -76.76278 1036 ft 144 kts 69°
2026-05-08 01:00 25.44997 -76.75244 932 ft 143 kts 69°
2026-05-08 01:00 25.45364 -76.74231 833 ft 141 kts 69°
2026-05-08 01:01 25.45730 -76.73219 735 ft 140 kts 69°
2026-05-08 01:01 25.46090 -76.72223 614 ft 142 kts 69°
2026-05-08 01:01 25.46466 -76.71182 429 ft 146 kts 69°
2026-05-08 01:01 25.46852 -76.70130 254 ft 150 kts 69°
2026-05-08 01:02 25.47229 -76.69048 68 ft 146 kts 67°
2026-05-08 01:02 25.47578 -76.68112 28 ft 119 kts 71°
2026-05-08 01:02 25.47765 -76.67588 34 ft 31 kts 71°
2026-05-08 01:02 25.47787 -76.67517 35 ft 11 kts 127°
2026-05-08 01:03 25.47753 -76.67590 35 ft 15 kts 259°
2026-05-08 01:03 25.47685 -76.67779 30 ft 36 kts 246°
2026-05-08 01:03 25.47607 -76.67996 26 ft 28 kts 252°
2026-05-08 01:03 25.47596 -76.68154 25 ft 19 kts 301°
2026-05-08 01:04 25.47636 -76.68179 25 ft 3 kts 18°
2026-05-08 01:04 25.47642 -76.68171 25 ft 0 kts 68°